Location: *
(34.6903°N, 135.5184°E)
Time: 15:00:47
(UTC+00:00)

MOS 1-B - Pass Details

Date: 22 September 2019
Orbit: 906 x 913 km, 99.4° (Epoch: 17 October)

Event Time Altitude Azimuth Distance (km) Brightness Sun altitude
Rises 20:11:56 0° 10° (N) 3,545 7.6 -7.8°
Reaches altitude 10° 20:14:22 10° 7° (N) 2,601 6.9 -7.3°
Maximum altitude 20:20:06 65° 287° (WNW) 999 4.4 -6.2°
Drops below altitude 10° 20:25:48 10° 207° (SSW) 2,591 6.4 -5.0°
Sets 20:28:13 0° 204° (SSW) 3,530 7.2 -4.5°
